DW6743 Weather Reports


Display with metric or nautical units.
time (UTC)temp
F
wind
direction
speed
MPH
gust
MPH
rain 1hr
in
rain 24hr
in
rain mn
in
humidity
%
barometer
mb
20260506111804 53 4 10.0 13.0 0.00 0.00 0.00 47 1011.5
20260506111557 53 358 8.0 12.0 0.00 0.00 0.00 50 1011.5
20260506111304 53 8 8.0 12.0 0.00 0.00 0.00 44 1011.5
20260506110804 53 348 7.0 15.0 0.00 0.00 0.00 49 1011.6
20260506110305 53 3 7.0 15.0 0.00 0.00 0.00 48 1011.7
20260506110103 53 356 7.0 14.0 0.00 0.00 0.00 48 1011.7
20260506104804 53 15 7.0 12.0 0.00 0.00 0.00 46 1011.8
20260506104600 53 313 8.0 13.0 0.00 0.00 0.00 48 1011.7
20260506104304 53 322 6.0 12.0 0.00 0.00 0.00 47 1011.9
20260506103804 53 0 10.0 13.0 0.00 0.00 0.00 48 1011.9
20260506103057 52 13 5.0 13.0 0.00 0.00 0.00 45 1011.8
20260506101804 52 4 9.0 13.0 0.00 0.00 0.00 51 1012.0
20260506101604 52 7 9.0 12.0 0.00 0.00 0.00 51 1011.9
20260506100804 52 332 9.0 12.0 0.00 0.00 0.00 48 1012.0
20260506100304 52 317 8.0 13.0 0.00 0.00 0.00 52 1012.0
20260506100100 52 329 8.0 13.0 0.00 0.00 0.00 53 1011.8
20260506094804 53 344 7.0 12.0 0.00 0.00 0.00 52 1012.0
20260506094622 52 336 7.0 12.0 0.00 0.00 0.00 50 1012.0
20260506094304 53 327 8.0 12.0 0.00 0.00 0.00 50 1012.0
20260506093805 53 326 9.0 12.0 0.00 0.00 0.00 50 1011.9
20260506093304 53 338 9.0 14.0 0.00 0.00 0.00 49 1011.9
20260506093057 52 319 8.0 14.0 0.00 0.00 0.00 49 1011.8
20260506091804 54 332 8.0 14.0 0.00 0.00 0.00 46 1011.9
20260506091557 54 325 6.0 11.0 0.00 0.00 0.00 44 1011.9
20260506091304 55 335 7.0 12.0 0.00 0.00 0.00 45 1012.0
20260506090804 55 319 5.0 10.0 0.00 0.00 0.00 31 1011.9
20260506090304 55 275 2.0 8.0 0.00 0.00 0.00 31 1012.0
20260506090059 54 0 1.0 8.0 0.00 0.00 0.00 30 1011.8
20260506084804 54 193 6.0 9.0 0.00 0.00 0.00 31 1012.0
20260506084602 54 174 4.0 12.0 0.00 0.00 0.00 31 1012.0
20260506083804 55 219 7.0 12.0 0.00 0.00 0.00 32 1012.0
20260506083305 54 203 2.0 13.0 0.00 0.00 0.00 31 1012.0
20260506083103 54 257 3.0 13.0 0.00 0.00 0.00 31 1011.9
20260506081804 54 212 5.0 10.0 0.00 0.00 0.00 34 1012.1
20260506081559 53 254 6.0 13.0 0.00 0.00 0.00 35 1012.0
20260506081304 53 219 6.0 10.0 0.00 0.00 0.00 38 1012.0
20260506080804 53 193 10.0 13.0 0.00 0.00 0.00 36 1012.1
20260506080304 53 198 10.0 14.0 0.00 0.00 0.00 37 1012.0
20260506073304 52 210 8.0 15.0 0.00 0.00 0.00 40 1012.1
20260506073105 51 169 6.0 14.0 0.00 0.00 0.00 41 1012.0
20260506071804 51 175 9.0 13.0 0.00 0.00 0.00 44 1012.0
20260506071559 50 184 8.0 15.0 0.00 0.00 0.00 44 1012.0
20260506071304 51 193 9.0 14.0 0.00 0.00 0.00 46 1012.1
20260506070804 50 169 6.0 12.0 0.00 0.00 0.00 45 1012.1
20260506070304 50 194 9.0 13.0 0.00 0.00 0.00 45 1012.0
20260506070109 49 183 8.0 12.0 0.00 0.00 0.00 45 1012.0
20260506061806 48 178 9.0 12.0 0.00 0.00 0.00 49 1012.1
20260506061600 47 181 5.0 12.0 0.00 0.00 0.00 49 1012.2
20260506061304 48 159 7.0 12.0 0.00 0.00 0.00 51 1012.1
20260506060804 47 167 6.0 10.0 0.00 0.00 0.00 52 1012.1
20260506060304 47 179 8.0 12.0 0.00 0.00 0.00 53 1012.0
20260506060105 46 126 8.0 12.0 0.00 0.00 0.00 54 1011.9
20260506050804 39 167 6.0 12.0 0.00 0.00 0.00 79 1012.2
20260506050305 38 173 7.0 10.0 0.00 0.00 0.00 80 1012.3
20260506044804 36 166 5.0 7.0 0.00 0.00 0.00 80 1012.2
20260506044600 36 171 4.0 8.0 0.00 0.00 0.00 79 1012.2
20260506044304 36 168 5.0 8.0 0.00 0.00 0.00 80 1012.3
20260506043804 35 167 5.0 8.0 0.00 0.00 0.00 80 1012.3
20260506043304 35 162 5.0 9.0 0.00 0.00 0.00 80 1012.3
20260506043059 35 164 5.0 9.0 0.00 0.00 0.00 80 1012.2
20260506041804 34 167 6.0 9.0 0.00 0.00 0.00 80 1012.4
20260506041558 33 170 6.0 11.0 0.00 0.00 0.00 80 1012.2
20260506041304 34 170 7.0 9.0 0.00 0.00 0.00 80 1012.2
20260506040805 33 165 7.0 9.0 0.00 0.00 0.00 80 1012.3
20260506040304 33 162 7.0 12.0 0.00 0.00 0.00 80 1012.2
20260506040105 33 165 7.0 10.0 0.00 0.00 0.00 79 1012.2
20260506034804 33 169 8.0 12.0 0.00 0.00 0.00 79 1012.2
20260506034615 33 169 6.0 12.0 0.00 0.00 0.00 78 1012.2
20260506034304 34 161 5.0 8.0 0.00 0.00 0.00 79 1012.3
20260506033804 34 156 6.0 8.0 0.00 0.00 0.00 79 1012.2
20260506033305 34 159 6.0 10.0 0.00 0.00 0.00 79 1012.2
20260506033056 34 163 7.0 10.0 0.00 0.00 0.00 78 1012.1
20260506031605 34 171 8.0 11.0 0.00 0.00 0.00 79 1012.1
20260506031304 35 177 9.0 10.0 0.00 0.00 0.00 80 1012.2
20260506030804 35 168 8.0 10.0 0.00 0.00 0.00 80 1012.1
20260506030304 35 167 10.0 12.0 0.00 0.00 0.00 80 1012.1
20260506024557 34 167 7.0 10.0 0.00 0.00 0.00 80 1012.1
20260506024305 34 164 7.0 10.0 0.00 0.00 0.00 81 1012.0
20260506023804 34 161 7.0 10.0 0.00 0.00 0.00 81 1012.2
20260506023304 34 165 9.0 12.0 0.00 0.00 0.00 81 1012.1
20260506023059 33 168 9.0 12.0 0.00 0.00 0.00 81 1012.1
20260506021804 33 171 10.0 12.0 0.00 0.00 0.00 82 1012.2
20260506021600 33 169 8.0 11.0 0.00 0.00 0.00 81 1012.2
20260506021304 33 164 7.0 9.0 0.00 0.00 0.00 81 1012.2
20260506020804 33 165 7.0 9.0 0.00 0.00 0.00 81 1012.2
20260506014804 33 184 10.0 12.0 0.00 0.00 0.00 81 1012.2
20260506014557 33 179 8.0 11.0 0.00 0.00 0.00 81 1012.1
20260506014304 33 168 7.0 8.0 0.00 0.00 0.00 81 1012.1
20260506013059 33 140 4.0 6.0 0.00 0.00 0.00 80 1012.0
20260506011805 33 136 5.0 8.0 0.00 0.00 0.00 80 1012.1
20260506011606 33 129 3.0 9.0 0.00 0.00 0.00 80 1011.9
20260506011304 33 144 6.0 9.0 0.00 0.00 0.00 80 1012.0
20260506010804 33 161 8.0 9.0 0.00 0.00 0.00 80 1011.9
20260506010304 34 151 6.0 7.0 0.00 0.00 0.00 80 1012.0
20260506010059 33 151 6.0 7.0 0.00 0.00 0.00 80 1011.9
20260506004805 34 132 6.0 9.0 0.00 0.00 0.00 80 1012.0
20260506004558 33 130 6.0 9.0 0.00 0.00 0.00 79 1012.0
20260506004304 34 128 5.0 8.0 0.00 0.00 0.00 80 1012.0
20260506003304 34 142 2.0 8.0 0.00 0.00 0.00 80 1011.9
20260506003056 34 143 2.0 7.0 0.00 0.00 0.00 79 1011.9
20260506001804 34 128 5.0 8.0 0.00 0.00 0.00 79 1012.0
20260506001559 34 103 2.0 7.0 0.00 0.00 0.00 79 1011.8
20260506001304 34 91 3.0 3.0 0.00 0.00 0.00 79 1011.9
20260506000304 34 115 9.0 12.0 0.00 0.00 0.00 78 1011.9
20260505234804 34 111 5.0 5.0 0.00 0.00 0.00 78 1012.0
20260505234604 34 111 4.0 9.0 0.00 0.00 0.00 78 1011.9
20260505234304 34 111 5.0 7.0 0.00 0.00 0.00 78 1012.0
20260505233804 35 111 7.0 9.0 0.00 0.00 0.00 78 1012.0
20260505233304 35 114 8.0 9.0 0.00 0.00 0.00 78 1012.0
20260505233110 34 115 7.0 8.0 0.00 0.00 0.00 77 1011.9
20260505231804 35 91 6.0 6.0 0.00 0.00 0.00 77 1012.0
20260505231605 35 91 5.0 8.0 0.00 0.00 0.00 77 1012.0
20260505231304 35 91 6.0 8.0 0.00 0.00 0.00 77 1012.0
20260505230304 35 91 3.0 7.0 0.00 0.00 0.00 77 1012.1
20260505230059 35 91 3.0 7.0 0.00 0.00 0.00 77 1012.0
20260505224804 36 91 5.0 6.0 0.00 0.00 0.00 77 1012.3
20260505224558 35 91 4.0 7.0 0.00 0.00 0.00 76 1012.2
20260505224304 36 91 6.0 7.0 0.00 0.00 0.00 76 1012.2
20260505223804 36 91 6.0 7.0 0.00 0.00 0.00 76 1012.3
20260505223304 36 91 3.0 6.0 0.00 0.00 0.00 76 1012.3
20260505223057 36 91 4.0 6.0 0.00 0.00 0.00 76 1012.3
20260505221804 37 69 5.0 7.0 0.00 0.00 0.00 76 1012.3
20260505221556 36 52 5.0 8.0 0.00 0.00 0.00 76 1012.2
20260505221304 37 59 7.0 8.0 0.00 0.00 0.00 76 1012.3
20260505220828 37 73 8.0 8.0 0.00 0.00 0.00 75 1012.3
20260505220304 37 73 6.0 7.0 0.00 0.00 0.00 75 1012.2
20260505220057 36 73 5.0 7.0 0.00 0.00 0.00 75 1012.1
20260505214600 37 69 4.0 8.0 0.00 0.00 0.00 74 1012.2
20260505214304 37 63 5.0 7.0 0.00 0.00 0.00 75 1012.2
20260505213804 37 85 6.0 8.0 0.00 0.00 0.00 75 1012.3
20260505213305 38 97 5.0 7.0 0.00 0.00 0.00 74 1012.1
20260505213059 37 88 4.0 7.0 0.00 0.00 0.00 74 1012.0
20260505211804 38 76 6.0 7.0 0.00 0.00 0.00 74 1012.0
20260505211610 38 68 6.0 8.0 0.00 0.00 0.00 73 1011.9
20260505211304 38 75 7.0 8.0 0.00 0.00 0.00 73 1012.0
20260505210804 38 88 6.0 7.0 0.00 0.00 0.00 73 1011.9
20260505210304 39 89 4.0 10.0 0.00 0.00 0.00 72 1011.9
20260505204603 39 42 5.0 9.0 0.00 0.00 0.00 71 1011.7
20260505204304 40 40 6.0 9.0 0.00 0.00 0.00 70 1011.9
20260505203804 40 39 7.0 9.0 0.00 0.00 0.00 70 1011.8
20260505203304 40 35 7.0 9.0 0.00 0.00 0.00 69 1011.8
20260505203100 40 35 6.0 9.0 0.00 0.00 0.00 69 1011.7
20260505201601 40 48 6.0 9.0 0.00 0.00 0.00 67 1011.7
20260505201307 41 38 6.0 7.0 0.00 0.00 0.00 67 1011.7
20260505200804 42 40 6.0 7.0 0.00 0.00 0.00 66 1011.7
20260505200304 42 46 6.0 9.0 0.00 0.00 0.00 65 1011.8
20260505200100 42 48 6.0 9.0 0.00 0.00 0.00 65 1011.7
20260505194804 44 24 4.0 5.0 0.00 0.17 0.00 61 1011.7
20260505194609 44 21 3.0 5.0 0.00 0.00 0.00 60 1011.6
20260505194304 45 34 3.0 3.0 0.00 0.17 0.00 59 1011.6
20260505193804 45 34 3.0 5.0 0.00 0.17 0.00 59 1011.7
20260505193304 46 23 4.0 7.0 0.00 0.17 0.00 58 1011.6
20260505193058 45 19 3.0 7.0 0.00 0.00 0.00 57 1011.6
20260505191804 46 26 5.0 7.0 0.00 0.35 0.00 53 1011.5
20260505191556 46 31 5.0 9.0 0.00 0.00 0.00 52 1011.5
20260505191304 46 37 7.0 9.0 0.00 0.35 0.00 51 1011.6
20260505190804 47 34 5.0 7.0 0.00 0.35 0.00 51 1011.6
20260505190304 47 38 5.0 8.0 0.00 0.35 0.00 50 1011.5
20260505190055 47 34 5.0 8.0 0.00 0.00 0.00 50 1011.5
20260505184804 48 41 3.0 5.0 0.00 0.35 0.00 46 1011.6
20260505184557 48 36 3.0 6.0 0.00 0.00 0.00 46 1011.4
20260505184304 49 34 3.0 6.0 0.00 0.35 0.00 46 1011.5
20260505183805 49 33 5.0 6.0 0.00 0.35 0.00 44 1011.5
20260505183304 49 45 6.0 10.0 0.00 0.35 0.00 45 1011.5
20260505183058 49 40 4.0 10.0 0.00 0.00 0.00 45 1011.5
20260505181804 50 30 4.0 10.0 0.00 0.52 0.00 45 1011.5
20260505181600 50 29 6.0 10.0 0.00 0.00 0.00 44 1011.4
20260505181304 50 14 6.0 10.0 0.00 0.52 0.00 44 1011.5
20260505180804 50 25 5.0 10.0 0.00 0.52 0.00 45 1011.4
20260505180304 50 27 7.0 12.0 0.00 0.52 0.00 44 1011.4
20260505180058 50 25 5.0 11.0 0.00 0.00 0.00 43 1011.3
20260505174806 50 15 6.0 12.0 0.00 0.52 0.00 44 1011.3
20260505174602 50 37 6.0 11.0 0.00 0.00 0.00 43 1011.3
20260505174304 50 38 7.0 10.0 0.00 0.52 0.00 44 1011.3
20260505173804 50 10 5.0 9.0 0.00 0.52 0.00 48 1011.2
20260505173304 50 24 7.0 12.0 0.00 0.52 0.00 48 1011.3
20260505173100 50 17 7.0 11.0 0.00 0.00 0.00 47 1011.2
20260505171804 50 23 6.0 8.0 0.00 0.69 0.00 49 1011.3
20260505171606 49 22 4.0 8.0 0.00 0.00 0.00 49 1011.2
20260505171304 50 356 5.0 8.0 0.00 0.69 0.00 48 1011.2
20260505170804 50 35 5.0 7.0 0.00 0.69 0.00 48 1011.2
20260505170304 50 27 5.0 8.0 0.00 0.69 0.00 48 1011.2
20260505170059 50 38 3.0 8.0 0.00 0.00 0.00 47 1011.1
20260505164804 49 28 5.0 10.0 0.00 0.69 0.00 50 1011.4
20260505164622 49 8 6.0 10.0 0.00 0.00 0.00 50 1011.4
20260505164304 49 17 5.0 10.0 0.00 0.69 0.00 50 1011.5
20260505163804 49 17 5.0 9.0 0.00 0.69 0.00 50 1011.5
20260505163304 50 34 6.0 12.0 0.00 0.69 0.00 51 1011.5
20260505163107 50 17 6.0 12.0 0.00 0.00 0.00 50 1011.5
20260505161616 49 16 7.0 14.0 0.00 0.00 0.00 50 1011.4
20260505161304 50 21 9.0 12.0 0.00 0.69 0.00 53 1011.5
20260505160804 50 30 7.0 12.0 0.00 0.69 0.00 51 1011.6
20260505160305 50 29 7.0 13.0 0.00 0.69 0.00 51 1011.6
20260505160110 50 39 9.0 13.0 0.00 0.00 0.00 50 1011.6
20260505153304 49 42 7.0 13.0 0.00 0.69 0.00 53 1011.4
20260505153101 49 38 8.0 13.0 0.00 0.00 0.00 53 1011.4
20260505151804 49 1 5.0 12.0 0.00 0.69 0.00 53 1011.4
20260505151604 49 340 7.0 13.0 0.00 0.00 0.00 52 1011.4
20260505150804 50 35 10.0 13.0 0.00 0.69 0.00 54 1011.6
20260505150304 50 14 9.0 14.0 0.00 0.69 0.00 54 1011.6
20260505140305 50 21 7.0 15.0 0.00 0.69 0.00 56 1011.8
20260505130304 50 19 12.0 16.0 0.00 1.21 0.00 57 1011.9
20260505130113 49 8 10.0 16.0 0.00 0.00 0.00 56 1011.9
20260505124804 50 22 9.0 16.0 0.00 1.21 0.00 55 1011.8
20260505124615 49 27 12.0 16.0 0.00 0.00 0.00 57 1011.7
20260505124304 49 23 10.0 16.0 0.00 1.21 0.00 56 1011.8
20260505123306 50 20 9.0 14.0 0.00 1.21 0.00 55 1011.8
20260505123101 49 38 9.0 14.0 0.00 0.00 0.00 54 1011.7
20260505121804 50 13 10.0 15.0 0.00 1.21 0.00 55 1011.7
20260505121559 49 6 11.0 16.0 0.00 0.00 0.00 53 1011.7
20260505121304 49 11 12.0 16.0 0.00 1.21 0.00 54 1011.8
20260505120804 50 11 12.0 15.0 0.00 1.21 0.00 54 1011.8
20260505120304 50 14 9.0 18.0 0.00 1.21 0.00 55 1011.8
20260505120111 50 44 10.0 18.0 0.00 0.00 0.00 55 1011.7
20260505114804 50 22 13.0 18.0 0.00 1.21 0.00 54 1011.7
20260505114601 49 25 12.0 17.0 0.00 0.00 0.00 52 1011.6
20260505114304 50 14 13.0 17.0 0.00 1.21 0.00 53 1011.6
20260505113804 50 17 10.0 15.0 0.00 1.21 0.00 56 1011.6
20260505113304 49 12 12.0 16.0 0.00 1.21 0.00 55 1011.5
20260505113105 48 11 8.0 16.0 0.00 0.00 0.00 54 1011.5